When you browse on this site, cookies collect data to enhance your experience and personalize the content and advertising you see.
Visit our Privacy Policy to learn more. By continuing to use the site, you agree to this use of cookies and data.
  • en Suisse
  • Liste des pays
  • À 7 jours
  • Température de l'eau
  • Carte satellitaire
  • Carte météo
  • Widgets météo
  • user-avatar
    Se connecter

    Météo par heure à Adélaïde

    Ce jour, 21 Mars, Jeudi

    Heure Température Précipitation Vent Pression Humidité
    00:00 +21°C° 0 mm 3 m/s 757 mmHg 77%
    01:00 +21°C° 0 mm 3 m/s 757 mmHg 77%
    02:00 +20°C° 0 mm 3 m/s 757 mmHg 77%
    03:00 +20°C° 0 mm 2 m/s 757 mmHg 77%
    04:00 +20°C° 0 mm 3 m/s 757 mmHg 77%
    05:00 +19°C° 0 mm 3 m/s 757 mmHg 78%
    06:00 +19°C° 0 mm 3 m/s 757 mmHg 78%
    07:00 +21°C° 0 mm 3 m/s 758 mmHg 70%
    08:00 +23°C° 0 mm 4 m/s 758 mmHg 63%
    09:00 +25°C° 0 mm 3 m/s 758 mmHg 56%
    10:00 +27°C° 0 mm 3 m/s 758 mmHg 51%
    11:00 +28°C° 0 mm 3 m/s 758 mmHg 47%
    12:00 +29°C° 0 mm 3 m/s 758 mmHg 43%
    13:00 +29°C° 0 mm 4 m/s 757 mmHg 44%
    14:00 +29°C° 0 mm 4 m/s 757 mmHg 45%
    15:00 +28°C° 0 mm 3 m/s 756 mmHg 48%
    16:00 +27°C° 0 mm 4 m/s 756 mmHg 55%
    17:00 +25°C° 0 mm 4 m/s 756 mmHg 62%
    18:00 +23°C° 0 mm 5 m/s 757 mmHg 70%
    19:00 +22°C° 0 mm 5 m/s 757 mmHg 74%
    20:00 +21°C° 0 mm 5 m/s 757 mmHg 78%
    21:00 +20°C° 0 mm 5 m/s 757 mmHg 82%
    22:00 +20°C° 0 mm 5 m/s 757 mmHg 82%
    23:00 +20°C° 0 mm 5 m/s 757 mmHg 83%

    Demain, 22 Mars, Vendredi

    Heure Température Précipitation Vent Pression Humidité
    00:00 +20°C° 0 mm 4 m/s 757 mmHg 83%
    01:00 +20°C° 0 mm 4 m/s 757 mmHg 84%
    02:00 +20°C° 0 mm 4 m/s 757 mmHg 84%
    03:00 +20°C° 0 mm 4 m/s 756 mmHg 84%
    04:00 +19°C° 0 mm 3 m/s 756 mmHg 84%
    05:00 +19°C° 0 mm 3 m/s 756 mmHg 85%
    06:00 +19°C° 0 mm 3 m/s 756 mmHg 86%
    07:00 +21°C° 0 mm 3 m/s 756 mmHg 78%
    08:00 +22°C° 0 mm 3 m/s 756 mmHg 71%
    09:00 +25°C° 0 mm 3 m/s 756 mmHg 63%
    10:00 +27°C° 0 mm 3 m/s 755 mmHg 58%
    11:00 +28°C° 0 mm 3 m/s 755 mmHg 52%
    12:00 +30°C° 0 mm 2 m/s 755 mmHg 47%
    13:00 +31°C° 0 mm 2 m/s 754 mmHg 44%
    14:00 +32°C° 0 mm 2 m/s 753 mmHg 41%
    15:00 +34°C° 0 mm 2 m/s 752 mmHg 38%
    16:00 +31°C° 0 mm 2 m/s 752 mmHg 45%
    17:00 +29°C° 0 mm 3 m/s 752 mmHg 52%
    18:00 +27°C° 0 mm 3 m/s 752 mmHg 59%
    19:00 +26°C° 0 mm 2 m/s 752 mmHg 62%
    20:00 +26°C° 0 mm 2 m/s 752 mmHg 65%
    21:00 +25°C° 0 mm 1 m/s 752 mmHg 68%
    22:00 +24°C° 0 mm 1 m/s 752 mmHg 71%
    23:00 +24°C° 0 mm 2 m/s 752 mmHg 74%

    Après-demain, 23 Mars, Samedi

    Heure Température Précipitation Vent Pression Humidité
    00:00 +23°C° 0 mm 2 m/s 752 mmHg 77%
    01:00 +21°C° 0 mm 2 m/s 752 mmHg 79%
    02:00 +21°C° 0 mm 2 m/s 752 mmHg 81%
    03:00 +21°C° 0 mm 2 m/s 752 mmHg 83%
    04:00 +20°C° 0 mm 2 m/s 752 mmHg 85%
    05:00 +20°C° 0 mm 2 m/s 752 mmHg 86%
    06:00 +20°C° 0 mm 2 m/s 753 mmHg 87%
    07:00 +21°C° 0 mm 3 m/s 753 mmHg 81%
    08:00 +22°C° 0 mm 3 m/s 753 mmHg 74%
    09:00 +24°C° 0 mm 3 m/s 754 mmHg 67%
    10:00 +25°C° 0 mm 3 m/s 753 mmHg 61%
    11:00 +27°C° 0 mm 3 m/s 753 mmHg 55%
    12:00 +28°C° 0 mm 3 m/s 753 mmHg 48%
    13:00 +28°C° 0 mm 3 m/s 753 mmHg 48%
    14:00 +28°C° 0 mm 3 m/s 752 mmHg 48%
    15:00 +28°C° 0 mm 3 m/s 752 mmHg 48%
    16:00 +27°C° 0 mm 3 m/s 753 mmHg 51%
    17:00 +26°C° 0 mm 2 m/s 753 mmHg 54%
    18:00 +25°C° 0 mm 2 m/s 754 mmHg 57%
    19:00 +24°C° 0 mm 2 m/s 754 mmHg 61%
    20:00 +24°C° 0 mm 2 m/s 755 mmHg 66%
    21:00 +23°C° 0 mm 1 m/s 755 mmHg 70%
    22:00 +23°C° 0.8 mm 1 m/s 755 mmHg 73%
    23:00 +22°C° 0.8 mm 1 m/s 754 mmHg 76%

    24 Mars, Dimanche

    Heure Température Précipitation Vent Pression Humidité
    00:00 +22°C° 0.8 mm 1 m/s 754 mmHg 80%
    01:00 +21°C° 0 mm 2 m/s 754 mmHg 80%
    02:00 +21°C° 0 mm 2 m/s 753 mmHg 81%
    03:00 +21°C° 0 mm 2 m/s 753 mmHg 81%
    04:00 +21°C° 0 mm 2 m/s 753 mmHg 82%
    05:00 +21°C° 0 mm 2 m/s 753 mmHg 82%
    06:00 +22°C° 0 mm 1 m/s 753 mmHg 83%
    07:00 +21°C° 0 mm 2 m/s 753 mmHg 80%
    08:00 +23°C° 0 mm 2 m/s 752 mmHg 77%
    09:00 +24°C° 0 mm 3 m/s 752 mmHg 74%
    10:00 +23°C° 0 mm 4 m/s 752 mmHg 72%
    11:00 +25°C° 0 mm 4 m/s 751 mmHg 71%
    12:00 +25°C° 0 mm 5 m/s 751 mmHg 69%
    13:00 +24°C° 0.1 mm 6 m/s 751 mmHg 68%
    14:00 +24°C° 0.1 mm 6 m/s 750 mmHg 67%
    15:00 +24°C° 0.1 mm 6 m/s 750 mmHg 66%
    16:00 +23°C° 0.2 mm 7 m/s 750 mmHg 70%
    17:00 +23°C° 0.2 mm 7 m/s 750 mmHg 75%
    18:00 +22°C° 0.2 mm 7 m/s 750 mmHg 79%
    19:00 +21°C° 0.1 mm 7 m/s 751 mmHg 73%
    20:00 +21°C° 0.1 mm 8 m/s 752 mmHg 68%
    21:00 +20°C° 0.1 mm 8 m/s 752 mmHg 63%
    22:00 +20°C° 0.1 mm 8 m/s 752 mmHg 65%
    23:00 +20°C° 0.1 mm 8 m/s 752 mmHg 67%

    25 Mars, Lundi

    Heure Température Précipitation Vent Pression Humidité
    00:00 +19°C° 0.1 mm 9 m/s 752 mmHg 69%
    01:00 +18°C° 0.1 mm 9 m/s 752 mmHg 66%
    02:00 +17°C° 0.1 mm 9 m/s 753 mmHg 63%
    03:00 +16°C° 0.1 mm 9 m/s 753 mmHg 61%
    04:00 +16°C° 0 mm 9 m/s 754 mmHg 60%
    05:00 +16°C° 0 mm 8 m/s 755 mmHg 59%
    06:00 +15°C° 0 mm 8 m/s 755 mmHg 58%
    07:00 +15°C° 0.1 mm 7 m/s 756 mmHg 57%
    08:00 +15°C° 0.1 mm 7 m/s 757 mmHg 55%
    09:00 +15°C° 0.1 mm 6 m/s 758 mmHg 54%
    10:00 +16°C° 0 mm 6 m/s 758 mmHg 50%
    11:00 +16°C° 0 mm 6 m/s 758 mmHg 47%
    12:00 +17°C° 0 mm 6 m/s 758 mmHg 44%
    13:00 +17°C° 0 mm 6 m/s 758 mmHg 44%
    14:00 +17°C° 0 mm 5 m/s 758 mmHg 44%
    15:00 +16°C° 0 mm 5 m/s 758 mmHg 44%
    16:00 +17°C° 0 mm 4 m/s 759 mmHg 46%
    17:00 +17°C° 0 mm 4 m/s 759 mmHg 47%
    18:00 +16°C° 0 mm 3 m/s 760 mmHg 49%
    19:00 +16°C° 0 mm 3 m/s 761 mmHg 51%
    20:00 +16°C° 0 mm 3 m/s 761 mmHg 53%
    21:00 +16°C° 0 mm 3 m/s 762 mmHg 55%
    22:00 +14°C° 0 mm 3 m/s 762 mmHg 57%
    23:00 +14°C° 0 mm 3 m/s 762 mmHg 59%

    26 Mars, Mardi

    Heure Température Précipitation Vent Pression Humidité
    00:00 +14°C° 0 mm 3 m/s 762 mmHg 61%
    01:00 +14°C° 0 mm 3 m/s 762 mmHg 63%
    02:00 +13°C° 0 mm 3 m/s 762 mmHg 65%
    03:00 +13°C° 0 mm 3 m/s 762 mmHg 67%
    04:00 +13°C° 0 mm 3 m/s 762 mmHg 67%
    05:00 +13°C° 0 mm 3 m/s 763 mmHg 68%
    06:00 +13°C° 0 mm 3 m/s 763 mmHg 69%
    07:00 +16°C° 0 mm 3 m/s 764 mmHg 63%
    08:00 +17°C° 0 mm 4 m/s 764 mmHg 58%
    09:00 +18°C° 0 mm 4 m/s 765 mmHg 53%
    10:00 +19°C° 0 mm 4 m/s 765 mmHg 52%
    11:00 +19°C° 0 mm 4 m/s 764 mmHg 51%
    12:00 +20°C° 0 mm 4 m/s 764 mmHg 50%
    13:00 +20°C° 0 mm 4 m/s 764 mmHg 49%
    14:00 +21°C° 0 mm 4 m/s 763 mmHg 48%
    15:00 +21°C° 0 mm 5 m/s 763 mmHg 47%
    16:00 +20°C° 0 mm 5 m/s 763 mmHg 52%
    17:00 +19°C° 0 mm 5 m/s 764 mmHg 57%
    18:00 +17°C° 0 mm 5 m/s 764 mmHg 62%
    19:00 +16°C° 0 mm 5 m/s 764 mmHg 65%
    20:00 +17°C° 0 mm 4 m/s 765 mmHg 69%
    21:00 +17°C° 0 mm 4 m/s 765 mmHg 72%
    22:00 +15°C° 0 mm 4 m/s 765 mmHg 74%
    23:00 +15°C° 0 mm 4 m/s 765 mmHg 76%
    Voir plus